CDT,Max TemperatureF,Mean TemperatureF,Min TemperatureF,Max Dew PointF,MeanDew PointF,Min DewpointF,Max Humidity, Mean Humidity, Min Humidity, Max Sea Level PressureIn, Mean Sea Level PressureIn, Min Sea Level PressureIn, Max VisibilityMiles, Mean VisibilityMiles, Min VisibilityMiles, Max Wind SpeedMPH, Mean Wind SpeedMPH, Max Gust SpeedMPH,PrecipitationIn, CloudCover, Events, WindDirDegrees
2012-10-1,,,,,,,,,,,,,,,,,,,,,,
2012-10-2,,,,,,,,,,,,,,,,,,,,,,
2012-10-3,,,,,,,,,,,,,,,,,,,,,,
2012-10-4,81,71,59,60,57,51,83,57,40,30.17,30.14,30.12,10,10,10,16,12,20,0.00,0,,219
2012-10-5,56,50,42,51,46,42,97,87,70,30.21,30.17,30.10,10,9,0,14,8,21,1.24,5,Rain-Thunderstorm,349
2012-10-6,55,45,36,41,36,32,100,72,44,30.24,30.21,30.18,10,10,10,12,6,20,0.20,1,,312
2012-10-7,54,46,39,39,35,31,93,66,42,30.26,30.22,30.19,10,10,10,14,6,21,0.00,3,,311
2012-10-8,60,46,33,43,36,32,100,73,36,30.26,30.18,30.11,10,9,0,12,2,,0.00,0,Fog,202
2012-10-9,65,51,37,46,42,37,100,71,43,30.12,30.05,29.96,10,10,10,17,5,21,0.00,1,,198
2012-10-10,58,48,37,47,36,27,100,64,33,30.26,30.18,29.96,10,10,10,16,10,24,0.00,2,,313
2012-10-11,65,49,33,46,37,34,100,68,35,30.29,30.24,30.17,10,10,10,14,3,17,0.00,0,,187
2012-10-12,66,58,49,50,48,45,94,70,52,30.37,30.30,30.22,10,10,4,16,4,,0.00,1,,71
2012-10-13,77,63,49,66,58,46,97,83,63,30.26,30.09,29.89,10,8,4,20,7,29,0.00,2,,171
2012-10-14,75,65,55,65,59,49,86,74,56,29.93,29.80,29.70,10,10,10,31,16,45,0.03,4,Rain,224
2012-10-15,67,57,46,49,46,40,97,69,39,30.02,29.97,29.92,10,10,7,12,6,20,0.00,0,,289
2012-10-16,77,60,42,54,51,43,100,60,44,29.95,29.80,29.69,10,10,10,17,10,23,0.00,0,,172
2012-10-17,76,66,55,59,54,50,100,70,48,29.73,29.59,29.38,10,10,3,24,12,38,0.49,4,Rain-Thunderstorm,182
2012-10-18,64,56,49,54,40,31,93,58,30,29.65,29.61,29.54,10,10,10,25,11,32,0.00,2,,235
2012-10-19,55,52,49,48,44,38,89,75,53,29.78,29.65,29.55,10,10,3,18,10,29,0.04,7,Rain,255
2012-10-20,57,51,45,48,46,45,99,82,68,29.97,29.89,29.78,10,10,5,13,6,17,0.00,5,,256
2012-10-21,77,60,43,63,52,42,99,75,47,30.02,29.99,29.95,10,9,5,13,6,,0.00,2,,148
2012-10-22,79,72,64,63,56,48,78,60,40,30.03,30.00,29.96,10,10,10,18,10,24,0.00,2,Rain-Thunderstorm,180
2012-10-23,71,66,61,64,57,51,96,72,53,30.03,29.99,29.94,10,10,1,15,9,18,0.50,3,Rain-Thunderstorm,185
2012-10-24,80,68,56,65,60,54,94,77,58,30.04,29.99,29.95,10,10,10,17,7,21,0.00,0,,179
2012-10-25,81,63,46,64,58,45,95,74,55,30.12,29.94,29.86,10,10,5,24,11,32,0.10,2,Rain,190
2012-10-26,50,45,41,46,38,34,95,77,61,30.30,30.24,30.11,10,9,2,18,12,30,0.43,5,Rain,352
2012-10-27,54,46,37,38,35,33,87,71,52,30.26,30.22,30.18,10,10,10,17,10,24,0.00,0,,356
2012-10-28,53,45,38,37,34,32,86,71,51,30.22,30.20,30.18,10,10,10,15,9,24,0.00,2,,353
2012-10-29,56,46,35,37,33,29,90,65,38,30.25,30.19,30.04,10,10,7,21,9,25,0.00,0,,338
2012-10-30,54,47,40,30,26,20,66,49,26,30.04,29.89,29.81,10,10,10,22,12,31,0.00,0,,316
2012-10-31,52,44,35,32,28,25,76,58,40,29.95,29.91,29.86,10,10,10,17,10,25,0.00,0,,296